When you browse on this site, cookies collect data to enhance your experience and personalize the content and advertising you see.
Visit our Privacy Policy to learn more. By continuing to use the site, you agree to this use of cookies and data.
  • In Spain
  • List of Countries
  • For 7 days
  • Water Temperature
  • Weather Map
  • Weather Widgets
  • user-avatar
    Login

    Hourly Weather Ciudad Bolívar

    Today, 25 May, Monday

    Time Temperature Precipitation Wind Pressure Humidity
    00:00 +32°C° 0 mm 6 mps 753 mmHg 57%
    01:00 +30°C° 0 mm 5 mps 752 mmHg 60%
    02:00 +29°C° 0 mm 4 mps 752 mmHg 63%
    03:00 +28°C° 0 mm 4 mps 752 mmHg 66%
    04:00 +28°C° 0 mm 4 mps 752 mmHg 69%
    05:00 +28°C° 0 mm 3 mps 752 mmHg 72%
    06:00 +28°C° 0 mm 3 mps 753 mmHg 69%
    07:00 +29°C° 0 mm 4 mps 753 mmHg 66%
    08:00 +30°C° 0 mm 4 mps 754 mmHg 62%
    09:00 +33°C° 0 mm 4 mps 753 mmHg 55%
    10:00 +35°C° 0 mm 3 mps 753 mmHg 48%
    11:00 +37°C° 0 mm 3 mps 753 mmHg 41%
    12:00 +38°C° 0 mm 3 mps 752 mmHg 37%
    13:00 +40°C° 0 mm 2 mps 751 mmHg 34%
    14:00 +41°C° 0 mm 2 mps 750 mmHg 30%
    15:00 +40°C° 0 mm 2 mps 750 mmHg 31%
    16:00 +40°C° 0 mm 3 mps 749 mmHg 31%
    17:00 +40°C° 0 mm 3 mps 749 mmHg 32%
    18:00 +38°C° 0.1 mm 4 mps 749 mmHg 36%
    19:00 +37°C° 0.1 mm 5 mps 750 mmHg 40%
    20:00 +36°C° 0.1 mm 5 mps 751 mmHg 45%
    21:00 +34°C° 0.1 mm 6 mps 752 mmHg 52%
    22:00 +33°C° 0.1 mm 6 mps 752 mmHg 60%
    23:00 +30°C° 0.1 mm 6 mps 753 mmHg 68%

    Tomorrow, 26 May, Tuesday

    Time Temperature Precipitation Wind Pressure Humidity
    00:00 +30°C° 0 mm 5 mps 753 mmHg 70%
    01:00 +29°C° 0 mm 5 mps 753 mmHg 73%
    02:00 +29°C° 0 mm 4 mps 752 mmHg 75%
    03:00 +28°C° 0 mm 3 mps 752 mmHg 77%
    04:00 +28°C° 0 mm 3 mps 752 mmHg 78%
    05:00 +28°C° 0 mm 2 mps 752 mmHg 79%
    06:00 +29°C° 0 mm 3 mps 752 mmHg 75%
    07:00 +30°C° 0 mm 3 mps 753 mmHg 71%
    08:00 +30°C° 0 mm 3 mps 754 mmHg 66%
    09:00 +33°C° 0 mm 3 mps 753 mmHg 59%
    10:00 +35°C° 0 mm 4 mps 753 mmHg 51%
    11:00 +37°C° 0 mm 4 mps 753 mmHg 43%
    12:00 +38°C° 0 mm 4 mps 752 mmHg 40%
    13:00 +39°C° 0 mm 3 mps 751 mmHg 37%
    14:00 +40°C° 0 mm 3 mps 750 mmHg 34%
    15:00 +39°C° 0 mm 3 mps 750 mmHg 35%
    16:00 +39°C° 0 mm 3 mps 749 mmHg 36%
    17:00 +38°C° 0 mm 3 mps 749 mmHg 37%
    18:00 +38°C° 0 mm 3 mps 750 mmHg 39%
    19:00 +37°C° 0 mm 3 mps 750 mmHg 42%
    20:00 +36°C° 0 mm 3 mps 751 mmHg 44%
    21:00 +35°C° 0.2 mm 4 mps 752 mmHg 52%
    22:00 +33°C° 0.2 mm 5 mps 752 mmHg 60%
    23:00 +30°C° 0.2 mm 6 mps 753 mmHg 67%

    Day after tomorrow, 27 May, Wednesday

    Time Temperature Precipitation Wind Pressure Humidity
    00:00 +30°C° 1.3 mm 5 mps 752 mmHg 72%
    01:00 +29°C° 1.3 mm 4 mps 752 mmHg 76%
    02:00 +28°C° 1.3 mm 3 mps 752 mmHg 80%
    03:00 +28°C° 0.6 mm 3 mps 752 mmHg 80%
    04:00 +28°C° 0.6 mm 2 mps 752 mmHg 81%
    05:00 +28°C° 0.6 mm 2 mps 752 mmHg 82%
    06:00 +28°C° 0 mm 2 mps 753 mmHg 77%
    07:00 +29°C° 0 mm 3 mps 753 mmHg 72%
    08:00 +30°C° 0 mm 3 mps 754 mmHg 67%
    09:00 +33°C° 0 mm 3 mps 753 mmHg 60%
    10:00 +34°C° 0 mm 4 mps 753 mmHg 52%
    11:00 +36°C° 0 mm 4 mps 753 mmHg 45%
    12:00 +37°C° 0 mm 4 mps 752 mmHg 41%
    13:00 +38°C° 0 mm 3 mps 751 mmHg 38%
    14:00 +39°C° 0 mm 3 mps 750 mmHg 35%
    15:00 +38°C° 0 mm 3 mps 750 mmHg 38%
    16:00 +37°C° 0 mm 4 mps 749 mmHg 40%
    17:00 +36°C° 0 mm 4 mps 749 mmHg 43%
    18:00 +35°C° 0.3 mm 4 mps 750 mmHg 50%
    19:00 +33°C° 0.3 mm 4 mps 750 mmHg 57%
    20:00 +32°C° 0.3 mm 4 mps 751 mmHg 65%
    21:00 +30°C° 0.2 mm 4 mps 752 mmHg 65%
    22:00 +30°C° 0.2 mm 4 mps 752 mmHg 66%
    23:00 +30°C° 0.2 mm 4 mps 753 mmHg 67%

    28 May, Thursday

    Time Temperature Precipitation Wind Pressure Humidity
    00:00 +29°C° 0.1 mm 4 mps 752 mmHg 70%
    01:00 +29°C° 0.1 mm 4 mps 752 mmHg 73%
    02:00 +28°C° 0.1 mm 4 mps 752 mmHg 75%
    03:00 +28°C° 0 mm 3 mps 752 mmHg 75%
    04:00 +28°C° 0 mm 3 mps 752 mmHg 75%
    05:00 +28°C° 0 mm 2 mps 752 mmHg 75%
    06:00 +28°C° 0 mm 3 mps 752 mmHg 72%
    07:00 +29°C° 0 mm 3 mps 753 mmHg 69%
    08:00 +29°C° 0 mm 3 mps 753 mmHg 65%
    09:00 +32°C° 0 mm 4 mps 753 mmHg 59%
    10:00 +33°C° 0 mm 4 mps 753 mmHg 53%
    11:00 +35°C° 0 mm 4 mps 753 mmHg 47%
    12:00 +35°C° 0 mm 4 mps 752 mmHg 45%
    13:00 +36°C° 0 mm 4 mps 751 mmHg 42%
    14:00 +37°C° 0 mm 4 mps 750 mmHg 40%
    15:00 +37°C° 0 mm 4 mps 750 mmHg 39%
    16:00 +37°C° 0 mm 4 mps 749 mmHg 39%
    17:00 +37°C° 0 mm 4 mps 749 mmHg 38%
    18:00 +36°C° 0.1 mm 5 mps 750 mmHg 43%
    19:00 +35°C° 0.1 mm 5 mps 750 mmHg 48%
    20:00 +33°C° 0.1 mm 6 mps 751 mmHg 54%
    21:00 +32°C° 0.1 mm 6 mps 752 mmHg 58%
    22:00 +30°C° 0.1 mm 5 mps 752 mmHg 62%
    23:00 +30°C° 0.1 mm 5 mps 753 mmHg 66%

    29 May, Friday

    Time Temperature Precipitation Wind Pressure Humidity
    00:00 +29°C° 0 mm 5 mps 752 mmHg 68%
    01:00 +29°C° 0 mm 4 mps 752 mmHg 69%
    02:00 +28°C° 0 mm 4 mps 752 mmHg 71%
    03:00 +28°C° 0 mm 4 mps 752 mmHg 72%
    04:00 +28°C° 0 mm 4 mps 752 mmHg 72%
    05:00 +27°C° 0 mm 3 mps 752 mmHg 72%
    06:00 +28°C° 0 mm 4 mps 752 mmHg 67%
    07:00 +29°C° 0 mm 4 mps 752 mmHg 63%
    08:00 +30°C° 0 mm 5 mps 753 mmHg 58%
    09:00 +33°C° 0 mm 5 mps 753 mmHg 51%
    10:00 +35°C° 0 mm 5 mps 752 mmHg 44%
    11:00 +37°C° 0 mm 5 mps 752 mmHg 37%
    12:00 +39°C° 0 mm 5 mps 751 mmHg 37%
    13:00 +38°C° 0 mm 4 mps 750 mmHg 36%
    14:00 +38°C° 0 mm 4 mps 749 mmHg 35%
    15:00 +38°C° 0 mm 4 mps 749 mmHg 35%
    16:00 +38°C° 0 mm 3 mps 749 mmHg 35%
    17:00 +38°C° 0 mm 3 mps 748 mmHg 36%
    18:00 +37°C° 0 mm 4 mps 749 mmHg 40%
    19:00 +35°C° 0 mm 4 mps 750 mmHg 45%
    20:00 +34°C° 0 mm 5 mps 751 mmHg 50%
    21:00 +33°C° 0 mm 5 mps 751 mmHg 53%
    22:00 +32°C° 0 mm 6 mps 752 mmHg 55%
    23:00 +32°C° 0 mm 6 mps 752 mmHg 58%

    30 May, Saturday

    Time Temperature Precipitation Wind Pressure Humidity
    00:00 +30°C° 0 mm 6 mps 752 mmHg 63%
    01:00 +29°C° 0 mm 5 mps 752 mmHg 67%
    02:00 +28°C° 0 mm 4 mps 751 mmHg 71%
    03:00 +28°C° 0 mm 4 mps 752 mmHg 72%
    04:00 +28°C° 0 mm 4 mps 752 mmHg 74%
    05:00 +28°C° 0 mm 3 mps 752 mmHg 75%
    06:00 +28°C° 0 mm 4 mps 752 mmHg 72%
    07:00 +29°C° 0 mm 4 mps 752 mmHg 69%
    08:00 +30°C° 0 mm 4 mps 753 mmHg 66%
    09:00 +32°C° 0 mm 4 mps 753 mmHg 62%
    10:00 +33°C° 0 mm 4 mps 752 mmHg 58%
    11:00 +34°C° 0 mm 3 mps 752 mmHg 54%
    12:00 +35°C° 0 mm 3 mps 751 mmHg 50%
    13:00 +36°C° 0 mm 3 mps 751 mmHg 46%
    14:00 +37°C° 0 mm 3 mps 750 mmHg 43%
    15:00 +37°C° 0 mm 3 mps 750 mmHg 43%
    16:00 +37°C° 0 mm 3 mps 749 mmHg 43%
    17:00 +36°C° 0 mm 4 mps 749 mmHg 43%
    18:00 +35°C° 0.2 mm 4 mps 750 mmHg 48%
    19:00 +34°C° 0.2 mm 4 mps 750 mmHg 52%
    20:00 +33°C° 0.2 mm 4 mps 751 mmHg 57%
    21:00 +32°C° 0.3 mm 4 mps 751 mmHg 61%
    22:00 +30°C° 0.3 mm 5 mps 752 mmHg 66%
    23:00 +29°C° 0.3 mm 5 mps 753 mmHg 70%
    Show more